Regional Weather Roundup
Issued by NWS

Home | Current Version | Previous Version | Text Only | Print | Product List | Glossary Off
Versions: 1 2 3 4 5 6 7 8 9 10 11 12 13 14 15 16 17 18 19 20 21 22 23 24 25 26 27 28 29 30 31 32 33 34 35 36 37 38 39 40 41 42 43 44 45 46 47 48 49 50

000
ASUS45 KCYS 022110
RWRWY

WYOMING REGIONAL WEATHER ROUNDUP
NATIONAL WEATHER SERVICE CHEYENNE WY
300 PM MDT TUE SEP 02 2014

NOTE:  "FAIR" INDICATES FEW OR NO CLOUDS BELOW 12,000 FEET
WITH NO SIGNIFICANT WEATHER AND/OR OBSTRUCTIONS TO VISIBILITY.

WYZ001-022200-
YELLOWSTONE NATIONAL PARK

CITY           SKY/WX    TMP DP  RH WIND       PRES   REMARKS
LK YELLOWSTONE   N/A     61  31  32 VRB7G22   30.13F
W YELLOWSTONE  NOT AVBL

$$
WYZ002>013-054>058-071-098>099-022200-
NORTHERN WYOMING

CITY           SKY/WX    TMP DP  RH WIND       PRES   REMARKS
JACKSON        SUNNY     73  36  25 S12G23    30.04F
CODY             N/A     77  36  22 CALM      29.87
GREYBULL       SUNNY     80  26  13 S8        29.83F
WORLAND        SUNNY     80  33  18 VRB5      29.85F
SHERIDAN       SUNNY     79  40  24 VRB3      29.85F
BUFFALO        SUNNY     77  37  23 E6        29.91F
GILLETTE       MOSUNNY   78  33  19 VRB5      29.90F
HULETT         FAIR      77  37  24 MISG      29.91
NEWCASTLE      FAIR      77  30  18 CALM      29.94

$$
WYZ014>020-022>026-101>103-022200-
CENTRAL WYOMING

CITY           SKY/WX    TMP DP  RH WIND       PRES   REMARKS
BIG PINEY      SUNNY     75  32  20 W16G26    30.10F
PINEDALE       CLEAR     70  32  24 NW6       30.11F
DUBOIS         FAIR      70  27  19 W21G33    30.05F
LANDER         SUNNY     78  26  14 N5        29.94F
RIVERTON       SUNNY     76  23  14 E6        29.95F
CASPER         SUNNY     83  23  11 SW18G26   29.94F
DOUGLAS        SUNNY     82  30  15 W14G22    29.95

$$
WYZ021-027>030-104>119-022200-
SOUTHERN WYOMING

CITY           SKY/WX    TMP DP  RH WIND       PRES   REMARKS
EVANSTON       SUNNY     78  33  19 W28G35    30.13F
KEMMERER       CLEAR     73  34  23 SW15G26   30.13F
FORT BRIDGER   FAIR      80  34  19 SW17G28   30.14F
ROCK SPRINGS   SUNNY     78  31  17 W20G25    30.09F
DIXON          FAIR      79  36  21 W14G24    30.12F
RAWLINS        SUNNY     78  30  17 SW23G29   30.09F
SARATOGA       FAIR      77  36  22 W18G28    30.12F
LARAMIE        SUNNY     76  31  19 W22G35    30.12F
CHEYENNE       SUNNY     80  35  19 S13G18    30.05F
TORRINGTON     SUNNY     85  33  15 W8        29.91F
PINE BLUFFS    FAIR      81  39  22 S8        30.01F

$$



USA.gov is the U.S. government's official web portal to all federal, state and local government web resources and services.